Location: Bocchiglicro
(39.4167°N, 16.7500°E)
Time: 03:00:43
(UTC+00:00)

Okean 3 Rocket - Pass Details

Date: 07 June 2020
Orbit: 614 x 646 km, 82.5° (Epoch: 06 July)

Event Time Altitude Azimuth Distance (km) Brightness Sun altitude
Exits shadow 01:44:42 19° 179° (S) 1,550 5.2 -15.9°
Maximum altitude 01:47:59 76° 96° (E) 670 3.8 -15.4°
Drops below altitude 10° 01:52:32 10° 11° (N) 2,051 7.1 -14.9°
Sets 01:54:47 0° 10° (N) 2,964 8.1 -14.6°
